| time (UTC) | temp F | wind direction | speed MPH | gust MPH | rain 1hr in | rain 24hr in | rain mn in | humidity % | barometer mb |
| 20260510030628 | 61 | 261 | 0.0 | 0.0 | 0.00 | 0.00 | 0.00 | 80 | 1006.3 |
| 20260510030123 | 61 | 261 | 0.0 | 0.0 | 0.00 | 0.00 | 0.00 | 80 | 1006.3 |
| 20260510025651 | 61 | 261 | 0.0 | 0.0 | 0.00 | 0.00 | 0.00 | 80 | 1006.1 |
| 20260510025119 | 62 | 261 | 0.0 | 0.0 | 0.00 | 0.00 | 0.00 | 80 | 1006.1 |
| 20260510024634 | 62 | 261 | 0.0 | 0.0 | 0.00 | 0.00 | 0.00 | 79 | 1006.1 |
| 20260510024109 | 62 | 261 | 0.0 | 0.0 | 0.00 | 0.00 | 0.00 | 79 | 1006.0 |
| 20260510023625 | 62 | 261 | 0.0 | 0.0 | 0.00 | 0.00 | 0.00 | 78 | 1006.0 |
| 20260510023119 | 63 | 261 | 0.0 | 2.0 | 0.00 | 0.00 | 0.00 | 77 | 1006.0 |
| 20260510022614 | 63 | 261 | 0.0 | 3.0 | 0.00 | 0.00 | 0.00 | 76 | 1006.0 |
| 20260510022110 | 64 | 261 | 0.0 | 3.0 | 0.00 | 0.00 | 0.00 | 75 | 1006.0 |
| 20260510021604 | 64 | 261 | 0.0 | 1.0 | 0.00 | 0.00 | 0.00 | 73 | 1006.0 |
| 20260510021121 | 65 | 261 | 0.0 | 1.0 | 0.00 | 0.00 | 0.00 | 72 | 1005.8 |
| 20260510020616 | 66 | 261 | 0.0 | 0.0 | 0.00 | 0.00 | 0.00 | 71 | 1005.8 |
| 20260510020108 | 66 | 261 | 0.0 | 4.0 | 0.00 | 0.00 | 0.00 | 71 | 1005.8 |
| 20260510015629 | 66 | 261 | 0.0 | 4.0 | 0.00 | 0.00 | 0.00 | 71 | 1005.6 |
| 20260510015116 | 66 | 267 | 0.0 | 3.0 | 0.00 | 0.00 | 0.00 | 71 | 1005.6 |
| 20260510014716 | 66 | 267 | 0.0 | 3.0 | 0.00 | 0.00 | 0.00 | 71 | 1005.6 |
| 20260510014125 | 66 | 267 | 1.0 | 6.0 | 0.00 | 0.00 | 0.00 | 72 | 1005.6 |
| 20260510013623 | 66 | 267 | 0.0 | 9.0 | 0.00 | 0.00 | 0.00 | 72 | 1005.6 |
| 20260510013117 | 67 | 288 | 2.0 | 10.0 | 0.00 | 0.00 | 0.00 | 70 | 1005.6 |
| 20260510012615 | 67 | 275 | 2.0 | 10.0 | 0.00 | 0.00 | 0.00 | 68 | 1005.5 |
| 20260510012134 | 68 | 245 | 1.0 | 7.0 | 0.00 | 0.00 | 0.00 | 67 | 1005.5 |
| 20260510011607 | 69 | 281 | 3.0 | 6.0 | 0.00 | 0.00 | 0.00 | 65 | 1005.5 |
| 20260510011107 | 69 | 243 | 2.0 | 4.0 | 0.00 | 0.00 | 0.00 | 64 | 1005.5 |
| 20260510010622 | 70 | 240 | 0.0 | 6.0 | 0.00 | 0.00 | 0.00 | 64 | 1005.5 |
| 20260510010118 | 70 | 234 | 1.0 | 7.0 | 0.00 | 0.00 | 0.00 | 63 | 1005.5 |
| 20260510005616 | 72 | 291 | 3.0 | 7.0 | 0.00 | 0.00 | 0.00 | 61 | 1005.5 |
| 20260510005111 | 72 | 279 | 0.0 | 6.0 | 0.00 | 0.00 | 0.00 | 61 | 1005.5 |
| 20260510004614 | 73 | 284 | 2.0 | 6.0 | 0.00 | 0.00 | 0.00 | 61 | 1005.5 |
| 20260510004116 | 73 | 277 | 0.0 | 6.0 | 0.00 | 0.00 | 0.00 | 60 | 1005.5 |
| 20260510003605 | 74 | 281 | 2.0 | 5.0 | 0.00 | 0.00 | 0.00 | 58 | 1005.5 |
| 20260510003141 | 74 | 240 | 0.0 | 3.0 | 0.00 | 0.00 | 0.00 | 57 | 1005.5 |
| 20260510002615 | 74 | 261 | 0.0 | 4.0 | 0.00 | 0.00 | 0.00 | 58 | 1005.6 |
| 20260510002113 | 74 | 284 | 0.0 | 5.0 | 0.00 | 0.00 | 0.00 | 59 | 1005.6 |
| 20260510001610 | 75 | 282 | 2.0 | 9.0 | 0.00 | 0.00 | 0.00 | 57 | 1005.6 |
| 20260510001108 | 77 | 248 | 5.0 | 7.0 | 0.00 | 0.00 | 0.00 | 52 | 1005.5 |
| 20260510000604 | 79 | 256 | 0.0 | 5.0 | 0.00 | 0.00 | 0.00 | 49 | 1005.5 |
| 20260510000121 | 80 | 250 | 0.0 | 5.0 | 0.00 | 0.00 | 0.00 | 49 | 1005.5 |
| 20260509235615 | 81 | 246 | 1.0 | 5.0 | 0.00 | 0.00 | 0.00 | 46 | 1005.5 |
| 20260509235113 | 81 | 225 | 0.0 | 0.0 | 0.00 | 0.00 | 0.00 | 47 | 1005.5 |
| 20260509234606 | 81 | 88 | 0.0 | 0.0 | 0.00 | 0.00 | 0.00 | 47 | 1005.5 |
| 20260509234136 | 82 | 84 | 0.0 | 1.0 | 0.00 | 0.00 | 0.00 | 47 | 1005.5 |
| 20260509233612 | 82 | 84 | 0.0 | 1.0 | 0.00 | 0.00 | 0.00 | 46 | 1005.5 |
| 20260509233110 | 82 | 84 | 0.0 | 0.0 | 0.00 | 0.00 | 0.00 | 47 | 1005.5 |
| 20260509232606 | 82 | 84 | 0.0 | 2.0 | 0.00 | 0.00 | 0.00 | 48 | 1005.6 |
| 20260509232122 | 82 | 84 | 0.0 | 2.0 | 0.00 | 0.00 | 0.00 | 47 | 1005.6 |
| 20260509231637 | 82 | 84 | 0.0 | 3.0 | 0.00 | 0.00 | 0.00 | 49 | 1005.6 |
| 20260509231111 | 81 | 84 | 0.0 | 3.0 | 0.00 | 0.00 | 0.00 | 48 | 1005.6 |
| 20260509230607 | 81 | 71 | 0.0 | 4.0 | 0.00 | 0.00 | 0.00 | 50 | 1005.6 |
| 20260509230105 | 81 | 306 | 0.0 | 5.0 | 0.00 | 0.00 | 0.00 | 50 | 1005.6 |
| 20260509225624 | 80 | 78 | 0.0 | 5.0 | 0.00 | 0.00 | 0.00 | 51 | 1005.6 |
| 20260509225122 | 80 | 67 | 0.0 | 4.0 | 0.00 | 0.00 | 0.00 | 52 | 1005.6 |
| 20260509224616 | 79 | 60 | 0.0 | 3.0 | 0.00 | 0.00 | 0.00 | 53 | 1005.6 |
| 20260509224246 | 78 | 54 | 0.0 | 3.0 | 0.00 | 0.00 | 0.00 | 55 | 1005.9 |
| 20260509223633 | 76 | 288 | 0.0 | 4.0 | 0.00 | 0.00 | 0.00 | 58 | 1005.9 |
| 20260509223144 | 75 | 281 | 0.0 | 7.0 | 0.00 | 0.00 | 0.00 | 60 | 1005.9 |
| 20260509222631 | 74 | 278 | 0.0 | 7.0 | 0.00 | 0.00 | 0.00 | 59 | 1006.1 |
| 20260509222106 | 75 | 205 | 2.0 | 7.0 | 0.00 | 0.00 | 0.00 | 57 | 1006.1 |
| 20260509221605 | 76 | 260 | 3.0 | 7.0 | 0.00 | 0.00 | 0.00 | 56 | 1006.1 |
| 20260509221120 | 77 | 180 | 0.0 | 4.0 | 0.00 | 0.00 | 0.00 | 53 | 1006.4 |
| 20260509220616 | 78 | 273 | 0.0 | 4.0 | 0.00 | 0.00 | 0.00 | 55 | 1006.4 |
| 20260509220130 | 78 | 139 | 0.0 | 0.0 | 0.00 | 0.00 | 0.00 | 54 | 1006.4 |
| 20260509215605 | 78 | 57 | 0.0 | 0.0 | 0.00 | 0.00 | 0.00 | 55 | 1006.6 |
| 20260509215104 | 78 | 57 | 0.0 | 5.0 | 0.00 | 0.00 | 0.00 | 56 | 1006.6 |
| 20260509214601 | 77 | 55 | 0.0 | 5.0 | 0.00 | 0.00 | 0.00 | 56 | 1006.6 |
| 20260509214117 | 77 | 57 | 0.0 | 5.0 | 0.00 | 0.00 | 0.00 | 57 | 1006.6 |
| 20260509213631 | 76 | 79 | 1.0 | 4.0 | 0.00 | 0.00 | 0.00 | 60 | 1006.6 |
| 20260509213144 | 75 | 336 | 0.0 | 4.0 | 0.00 | 0.00 | 0.00 | 61 | 1006.6 |
| 20260509212623 | 74 | 319 | 1.0 | 6.0 | 0.00 | 0.00 | 0.00 | 60 | 1006.8 |
| 20260509212111 | 74 | 290 | 0.0 | 4.0 | 0.00 | 0.00 | 0.00 | 62 | 1006.8 |
| 20260509211606 | 74 | 313 | 0.0 | 7.0 | 0.00 | 0.00 | 0.00 | 61 | 1006.8 |
| 20260509211140 | 74 | 305 | 3.0 | 7.0 | 0.00 | 0.00 | 0.00 | 59 | 1007.0 |
| 20260509210613 | 75 | 298 | 1.0 | 6.0 | 0.00 | 0.00 | 0.00 | 59 | 1007.0 |
| 20260509210107 | 76 | 302 | 0.0 | 4.0 | 0.00 | 0.00 | 0.00 | 57 | 1007.0 |
| 20260509205707 | 76 | 315 | 0.0 | 5.0 | 0.00 | 0.00 | 0.00 | 58 | 1007.1 |
| 20260509205107 | 77 | 49 | 0.0 | 5.0 | 0.00 | 0.00 | 0.00 | 56 | 1007.1 |
| 20260509204603 | 76 | 311 | 0.0 | 5.0 | 0.00 | 0.00 | 0.00 | 57 | 1007.1 |
| 20260509204101 | 77 | 42 | 0.0 | 6.0 | 0.00 | 0.00 | 0.00 | 57 | 1007.1 |
| 20260509203616 | 77 | 42 | 0.0 | 6.0 | 0.00 | 0.00 | 0.00 | 56 | 1007.1 |
| 20260509203129 | 77 | 360 | 1.0 | 5.0 | 0.00 | 0.00 | 0.00 | 56 | 1007.1 |
| 20260509202717 | 78 | 327 | 3.0 | 5.0 | 0.00 | 0.00 | 0.00 | 54 | 1007.1 |
| 20260509202110 | 77 | 65 | 3.0 | 5.0 | 0.00 | 0.00 | 0.00 | 58 | 1007.1 |
| 20260509201606 | 76 | 71 | 1.0 | 5.0 | 0.00 | 0.00 | 0.00 | 59 | 1007.1 |
| 20260509201104 | 76 | 74 | 0.0 | 4.0 | 0.00 | 0.00 | 0.00 | 58 | 1007.2 |
| 20260509200603 | 76 | 73 | 0.0 | 10.0 | 0.00 | 0.00 | 0.00 | 59 | 1007.2 |
| 20260509200118 | 75 | 73 | 1.0 | 10.0 | 0.00 | 0.00 | 0.00 | 61 | 1007.2 |
| 20260509195613 | 75 | 332 | 0.0 | 4.0 | 0.00 | 0.00 | 0.00 | 60 | 1007.5 |
| 20260509195112 | 75 | 360 | 0.0 | 4.0 | 0.00 | 0.00 | 0.00 | 59 | 1007.5 |
| 20260509194606 | 75 | 40 | 0.0 | 5.0 | 0.00 | 0.00 | 0.00 | 60 | 1007.5 |
| 20260509194103 | 74 | 81 | 0.0 | 5.0 | 0.00 | 0.00 | 0.00 | 62 | 1007.6 |
| 20260509193637 | 74 | 28 | 0.0 | 5.0 | 0.00 | 0.00 | 0.00 | 62 | 1007.6 |
| 20260509193127 | 73 | 73 | 0.0 | 5.0 | 0.00 | 0.00 | 0.00 | 63 | 1007.6 |
| 20260509192729 | 73 | 306 | 1.0 | 5.0 | 0.00 | 0.00 | 0.00 | 66 | 1007.7 |
| 20260509192130 | 72 | 292 | 1.0 | 7.0 | 0.00 | 0.00 | 0.00 | 64 | 1007.7 |
| 20260509191617 | 72 | 277 | 2.0 | 5.0 | 0.00 | 0.00 | 0.00 | 64 | 1007.7 |
| 20260509191113 | 72 | 17 | 0.0 | 3.0 | 0.00 | 0.00 | 0.00 | 65 | 1007.7 |
| 20260509190627 | 72 | 360 | 0.0 | 4.0 | 0.00 | 0.00 | 0.00 | 64 | 1007.7 |
| 20260509185618 | 71 | 306 | 0.0 | 7.0 | 0.00 | 0.00 | 0.00 | 66 | 1007.9 |
| 20260509185113 | 71 | 279 | 0.0 | 7.0 | 0.00 | 0.00 | 0.00 | 67 | 1007.9 |
| 20260509184609 | 71 | 312 | 0.0 | 7.0 | 0.00 | 0.00 | 0.00 | 67 | 1007.9 |
| 20260509184108 | 71 | 292 | 1.0 | 7.0 | 0.00 | 0.00 | 0.00 | 65 | 1008.1 |
| 20260509183604 | 72 | 293 | 3.0 | 7.0 | 0.00 | 0.00 | 0.00 | 63 | 1008.1 |
| 20260509183118 | 73 | 312 | 2.0 | 7.0 | 0.00 | 0.00 | 0.00 | 62 | 1008.1 |
| 20260509182626 | 73 | 26 | 2.0 | 5.0 | 0.00 | 0.00 | 0.00 | 64 | 1008.1 |
| 20260509182133 | 72 | 74 | 0.0 | 0.0 | 0.00 | 0.00 | 0.00 | 64 | 1008.1 |
| 20260509181603 | 71 | 74 | 0.0 | 0.0 | 0.00 | 0.00 | 0.00 | 66 | 1008.1 |
| 20260509181141 | 71 | 74 | 0.0 | 0.0 | 0.00 | 0.00 | 0.00 | 66 | 1008.1 |
| 20260509180622 | 70 | 74 | 0.0 | 1.0 | 0.00 | 0.00 | 0.00 | 66 | 1008.1 |
| 20260509180113 | 70 | 75 | 0.0 | 1.0 | 0.00 | 0.00 | 0.00 | 66 | 1008.1 |
| 20260509175609 | 69 | 75 | 0.0 | 4.0 | 0.00 | 0.00 | 0.00 | 67 | 1008.3 |
| 20260509175104 | 69 | 75 | 2.0 | 5.0 | 0.00 | 0.00 | 0.00 | 70 | 1008.3 |
| 20260509174556 | 69 | 75 | 0.0 | 5.0 | 0.00 | 0.00 | 0.00 | 70 | 1008.3 |
| 20260509174208 | 68 | 351 | 0.0 | 5.0 | 0.00 | 0.00 | 0.00 | 72 | 1008.2 |
| 20260509173603 | 67 | 87 | 0.0 | 5.0 | 0.00 | 0.00 | 0.00 | 75 | 1008.2 |
| 20260509173057 | 66 | 57 | 0.0 | 2.0 | 0.00 | 0.00 | 0.00 | 75 | 1008.2 |
| 20260509172636 | 66 | 56 | 0.0 | 0.0 | 0.00 | 0.00 | 0.00 | 75 | 1008.2 |
| 20260509172110 | 66 | 56 | 0.0 | 0.0 | 0.00 | 0.00 | 0.00 | 76 | 1008.2 |
| 20260509171609 | 65 | 57 | 0.0 | 0.0 | 0.00 | 0.00 | 0.00 | 77 | 1008.2 |
| 20260509171104 | 65 | 87 | 0.0 | 0.0 | 0.00 | 0.00 | 0.00 | 77 | 1008.1 |
| 20260509170618 | 65 | 87 | 0.0 | 2.0 | 0.00 | 0.00 | 0.00 | 79 | 1008.1 |
| 20260509170134 | 64 | 87 | 0.0 | 3.0 | 0.00 | 0.00 | 0.00 | 80 | 1008.1 |
| 20260509165608 | 64 | 87 | 0.0 | 5.0 | 0.00 | 0.00 | 0.00 | 80 | 1008.1 |
| 20260509165124 | 63 | 87 | 3.0 | 5.0 | 0.00 | 0.00 | 0.00 | 81 | 1008.1 |
| 20260509164617 | 63 | 175 | 0.0 | 2.0 | 0.00 | 0.00 | 0.00 | 82 | 1008.1 |
| 20260509164204 | 63 | 175 | 1.0 | 2.0 | 0.00 | 0.00 | 0.00 | 83 | 1008.1 |
| 20260509163633 | 62 | 194 | 0.0 | 0.0 | 0.00 | 0.00 | 0.00 | 83 | 1008.1 |
| 20260509163108 | 62 | 173 | 0.0 | 0.0 | 0.00 | 0.00 | 0.00 | 83 | 1008.1 |
| 20260509162635 | 62 | 173 | 0.0 | 0.0 | 0.00 | 0.00 | 0.00 | 84 | 1008.1 |
| 20260509162108 | 62 | 173 | 0.0 | 0.0 | 0.00 | 0.00 | 0.00 | 84 | 1008.1 |
| 20260509161604 | 62 | 206 | 0.0 | 2.0 | 0.00 | 0.00 | 0.00 | 84 | 1008.1 |
| 20260509161119 | 62 | 206 | 0.0 | 2.0 | 0.00 | 0.00 | 0.00 | 85 | 1008.1 |
| 20260509160614 | 62 | 80 | 0.0 | 4.0 | 0.00 | 0.00 | 0.00 | 85 | 1008.1 |
| 20260509160132 | 61 | 80 | 0.0 | 4.0 | 0.00 | 0.00 | 0.00 | 86 | 1008.1 |
| 20260509155605 | 61 | 78 | 0.0 | 0.0 | 0.00 | 0.00 | 0.00 | 86 | 1008.1 |
| 20260509155105 | 61 | 78 | 0.0 | 4.0 | 0.00 | 0.00 | 0.00 | 87 | 1008.1 |
| 20260509154620 | 61 | 78 | 0.0 | 4.0 | 0.00 | 0.00 | 0.00 | 87 | 1008.1 |
| 20260509154132 | 61 | 88 | 0.0 | 1.0 | 0.00 | 0.00 | 0.00 | 88 | 1008.2 |
| 20260509153610 | 60 | 88 | 0.0 | 1.0 | 0.00 | 0.00 | 0.00 | 88 | 1008.2 |
| 20260509153107 | 60 | 98 | 0.0 | 3.0 | 0.00 | 0.00 | 0.00 | 88 | 1008.2 |
| 20260509152711 | 60 | 98 | 0.0 | 3.0 | 0.00 | 0.00 | 0.00 | 89 | 1008.2 |
| 20260509152109 | 60 | 99 | 0.0 | 4.0 | 0.00 | 0.00 | 0.00 | 89 | 1008.2 |
| 20260509151605 | 60 | 101 | 1.0 | 4.0 | 0.00 | 0.00 | 0.00 | 90 | 1008.2 |
| 20260509151104 | 60 | 102 | 0.0 | 0.0 | 0.00 | 0.00 | 0.00 | 90 | 1008.1 |
| 20260509150600 | 60 | 102 | 0.0 | 0.0 | 0.00 | 0.00 | 0.00 | 90 | 1008.1 |
| 20260509150056 | 59 | 22 | 0.0 | 0.0 | 0.00 | 0.00 | 0.00 | 91 | 1008.1 |
| 20260509145614 | 59 | 19 | 0.0 | 0.0 | 0.00 | 0.00 | 0.00 | 91 | 1008.2 |
| 20260509145109 | 59 | 47 | 0.0 | 0.0 | 0.00 | 0.00 | 0.00 | 91 | 1008.2 |
| 20260509144603 | 59 | 47 | 0.0 | 4.0 | 0.00 | 0.00 | 0.00 | 91 | 1008.2 |
| 20260509144102 | 59 | 47 | 0.0 | 4.0 | 0.00 | 0.00 | 0.00 | 91 | 1008.1 |
| 20260509143618 | 59 | 46 | 0.0 | 0.0 | 0.00 | 0.00 | 0.00 | 92 | 1008.1 |
| 20260509143111 | 59 | 46 | 0.0 | 0.0 | 0.00 | 0.00 | 0.00 | 92 | 1008.1 |
| 20260509142637 | 59 | 46 | 0.0 | 0.0 | 0.00 | 0.00 | 0.00 | 92 | 1007.9 |
| 20260509142133 | 58 | 46 | 0.0 | 3.0 | 0.00 | 0.00 | 0.00 | 92 | 1007.9 |
| 20260509141617 | 58 | 46 | 0.0 | 3.0 | 0.00 | 0.00 | 0.00 | 92 | 1007.9 |
| 20260509141115 | 58 | 44 | 0.0 | 0.0 | 0.00 | 0.00 | 0.00 | 92 | 1007.7 |
| 20260509140602 | 58 | 117 | 0.0 | 0.0 | 0.00 | 0.00 | 0.00 | 92 | 1007.7 |
| 20260509140138 | 58 | 117 | 0.0 | 0.0 | 0.00 | 0.00 | 0.00 | 92 | 1007.7 |
| 20260509135612 | 58 | 117 | 0.0 | 0.0 | 0.00 | 0.00 | 0.00 | 92 | 1007.7 |
| 20260509135108 | 58 | 117 | 0.0 | 0.0 | 0.00 | 0.00 | 0.00 | 92 | 1007.7 |
| 20260509134623 | 58 | 117 | 0.0 | 3.0 | 0.00 | 0.00 | 0.00 | 92 | 1007.7 |
| 20260509134118 | 58 | 117 | 1.0 | 3.0 | 0.00 | 0.00 | 0.00 | 92 | 1007.7 |
| 20260509133612 | 58 | 142 | 0.0 | 3.0 | 0.00 | 0.00 | 0.00 | 92 | 1007.7 |
| 20260509133108 | 58 | 48 | 0.0 | 3.0 | 0.00 | 0.00 | 0.00 | 92 | 1007.7 |
| 20260509132607 | 58 | 47 | 0.0 | 3.0 | 0.00 | 0.00 | 0.00 | 92 | 1007.6 |
| 20260509132103 | 58 | 46 | 0.0 | 0.0 | 0.00 | 0.00 | 0.00 | 92 | 1007.6 |
| 20260509131634 | 58 | 46 | 0.0 | 0.0 | 0.00 | 0.00 | 0.00 | 92 | 1007.6 |
| 20260509131200 | 58 | 46 | 0.0 | 0.0 | 0.00 | 0.00 | 0.00 | 92 | 1007.5 |
| 20260509130601 | 58 | 46 | 0.0 | 3.0 | 0.00 | 0.00 | 0.00 | 92 | 1007.5 |
| 20260509130116 | 58 | 46 | 1.0 | 3.0 | 0.00 | 0.00 | 0.00 | 92 | 1007.5 |
| 20260509125611 | 58 | 46 | 1.0 | 2.0 | 0.00 | 0.00 | 0.00 | 92 | 1007.3 |
| 20260509125126 | 58 | 46 | 0.0 | 2.0 | 0.00 | 0.00 | 0.00 | 92 | 1007.3 |
| 20260509124624 | 58 | 46 | 0.0 | 0.0 | 0.00 | 0.00 | 0.00 | 92 | 1007.3 |
| 20260509124118 | 58 | 46 | 0.0 | 0.0 | 0.00 | 0.00 | 0.00 | 92 | 1007.3 |
| 20260509123612 | 58 | 46 | 0.0 | 0.0 | 0.00 | 0.00 | 0.00 | 92 | 1007.3 |
| 20260509123133 | 58 | 46 | 0.0 | 0.0 | 0.00 | 0.00 | 0.00 | 92 | 1007.3 |
| 20260509122628 | 58 | 46 | 0.0 | 0.0 | 0.00 | 0.00 | 0.00 | 92 | 1007.4 |
| 20260509122106 | 58 | 46 | 0.0 | 0.0 | 0.00 | 0.00 | 0.00 | 92 | 1007.4 |
| 20260509121600 | 58 | 46 | 0.0 | 0.0 | 0.00 | 0.00 | 0.00 | 92 | 1007.4 |
| 20260509121114 | 58 | 46 | 0.0 | 0.0 | 0.00 | 0.00 | 0.00 | 92 | 1007.5 |
| 20260509120612 | 58 | 46 | 0.0 | 2.0 | 0.00 | 0.00 | 0.00 | 92 | 1007.5 |
| 20260509120107 | 58 | 46 | 0.0 | 2.0 | 0.00 | 0.00 | 0.00 | 92 | 1007.5 |
| 20260509115606 | 58 | 46 | 0.0 | 0.0 | 0.00 | 0.00 | 0.00 | 92 | 1007.6 |
| 20260509115104 | 58 | 46 | 0.0 | 0.0 | 0.00 | 0.00 | 0.00 | 92 | 1007.6 |
| 20260509114559 | 58 | 46 | 0.0 | 0.0 | 0.00 | 0.00 | 0.00 | 92 | 1007.6 |
| 20260509114139 | 58 | 46 | 0.0 | 1.0 | 0.00 | 0.00 | 0.00 | 92 | 1007.5 |
| 20260509113613 | 58 | 46 | 0.0 | 3.0 | 0.00 | 0.00 | 0.00 | 92 | 1007.5 |
| 20260509113127 | 58 | 46 | 1.0 | 3.0 | 0.00 | 0.00 | 0.00 | 92 | 1007.5 |
| 20260509112614 | 58 | 45 | 0.0 | 2.0 | 0.00 | 0.00 | 0.00 | 92 | 1007.3 |
| 20260509112134 | 58 | 45 | 0.0 | 0.0 | 0.00 | 0.00 | 0.00 | 91 | 1007.3 |
| 20260509111711 | 58 | 45 | 0.0 | 0.0 | 0.00 | 0.00 | 0.00 | 91 | 1007.3 |
| 20260509111132 | 58 | 45 | 0.0 | 0.0 | 0.00 | 0.00 | 0.00 | 91 | 1007.5 |
| 20260509110605 | 58 | 45 | 0.0 | 0.0 | 0.00 | 0.00 | 0.00 | 91 | 1007.5 |
| 20260509110058 | 58 | 45 | 0.0 | 0.0 | 0.00 | 0.00 | 0.00 | 91 | 1007.5 |
| 20260509105553 | 58 | 45 | 0.0 | 0.0 | 0.00 | 0.00 | 0.00 | 91 | 1007.5 |
| 20260509105113 | 58 | 45 | 0.0 | 0.0 | 0.00 | 0.00 | 0.00 | 91 | 1007.5 |
| 20260509104608 | 58 | 45 | 0.0 | 0.0 | 0.00 | 0.00 | 0.00 | 91 | 1007.5 |
| 20260509104110 | 59 | 45 | 0.0 | 2.0 | 0.00 | 0.00 | 0.00 | 91 | 1007.6 |
| 20260509103605 | 59 | 45 | 0.0 | 2.0 | 0.00 | 0.00 | 0.00 | 91 | 1007.6 |
| 20260509103101 | 59 | 44 | 0.0 | 2.0 | 0.00 | 0.00 | 0.00 | 91 | 1007.6 |
| 20260509102615 | 59 | 44 | 0.0 | 0.0 | 0.00 | 0.00 | 0.00 | 91 | 1007.6 |
| 20260509102109 | 59 | 44 | 0.0 | 2.0 | 0.00 | 0.00 | 0.00 | 91 | 1007.6 |
| 20260509101633 | 59 | 44 | 1.0 | 2.0 | 0.00 | 0.00 | 0.00 | 91 | 1007.6 |
| 20260509101109 | 59 | 44 | 0.0 | 1.0 | 0.00 | 0.00 | 0.00 | 91 | 1007.6 |
| 20260509100557 | 59 | 44 | 0.0 | 1.0 | 0.00 | 0.00 | 0.00 | 91 | 1007.6 |
| 20260509100113 | 59 | 44 | 0.0 | 0.0 | 0.00 | 0.00 | 0.00 | 91 | 1007.6 |
| 20260509095610 | 59 | 44 | 0.0 | 0.0 | 0.00 | 0.00 | 0.00 | 91 | 1007.7 |
| 20260509095126 | 59 | 44 | 0.0 | 0.0 | 0.00 | 0.00 | 0.00 | 91 | 1007.7 |
| 20260509094626 | 59 | 44 | 0.0 | 0.0 | 0.00 | 0.00 | 0.00 | 91 | 1007.7 |
| 20260509094113 | 59 | 44 | 0.0 | 0.0 | 0.00 | 0.00 | 0.00 | 91 | 1007.7 |
| 20260509093631 | 59 | 44 | 0.0 | 3.0 | 0.00 | 0.00 | 0.00 | 91 | 1007.7 |
| 20260509093105 | 59 | 44 | 0.0 | 3.0 | 0.00 | 0.00 | 0.00 | 92 | 1007.7 |
| 20260509092621 | 59 | 43 | 0.0 | 0.0 | 0.00 | 0.00 | 0.00 | 92 | 1007.8 |
| 20260509092134 | 59 | 43 | 0.0 | 3.0 | 0.00 | 0.00 | 0.00 | 92 | 1007.8 |
| 20260509091611 | 59 | 43 | 1.0 | 3.0 | 0.00 | 0.00 | 0.00 | 92 | 1007.8 |
| 20260509091107 | 59 | 151 | 0.0 | 0.0 | 0.00 | 0.00 | 0.00 | 92 | 1007.9 |
| 20260509090622 | 59 | 151 | 0.0 | 0.0 | 0.00 | 0.00 | 0.00 | 92 | 1007.9 |
| 20260509090056 | 59 | 151 | 0.0 | 0.0 | 0.00 | 0.00 | 0.00 | 92 | 1007.9 |
| 20260509085634 | 59 | 152 | 0.0 | 0.0 | 0.00 | 0.00 | 0.00 | 92 | 1007.9 |
| 20260509085107 | 59 | 151 | 0.0 | 0.0 | 0.00 | 0.00 | 0.00 | 92 | 1007.9 |
| 20260509084558 | 59 | 151 | 0.0 | 0.0 | 0.00 | 0.00 | 0.00 | 92 | 1007.9 |
| 20260509084220 | 59 | 151 | 0.0 | 0.0 | 0.00 | 0.00 | 0.00 | 92 | 1008.1 |
| 20260509083609 | 59 | 151 | 0.0 | 0.0 | 0.00 | 0.00 | 0.00 | 92 | 1008.1 |
| 20260509083125 | 59 | 151 | 0.0 | 0.0 | 0.00 | 0.00 | 0.00 | 92 | 1008.1 |
| 20260509082618 | 59 | 151 | 0.0 | 0.0 | 0.00 | 0.00 | 0.00 | 92 | 1008.2 |
| 20260509082116 | 59 | 151 | 0.0 | 0.0 | 0.00 | 0.00 | 0.00 | 92 | 1008.2 |
| 20260509081611 | 59 | 151 | 0.0 | 0.0 | 0.00 | 0.00 | 0.00 | 92 | 1008.2 |
| 20260509081127 | 59 | 151 | 0.0 | 0.0 | 0.00 | 0.00 | 0.00 | 92 | 1008.2 |
| 20260509080600 | 59 | 151 | 0.0 | 0.0 | 0.00 | 0.00 | 0.00 | 92 | 1008.2 |
| 20260509080059 | 59 | 151 | 0.0 | 0.0 | 0.00 | 0.00 | 0.00 | 92 | 1008.2 |
| 20260509075617 | 59 | 151 | 0.0 | 0.0 | 0.00 | 0.00 | 0.00 | 92 | 1008.4 |
| 20260509075111 | 59 | 151 | 0.0 | 0.0 | 0.00 | 0.00 | 0.00 | 93 | 1008.4 |
| 20260509074609 | 58 | 151 | 0.0 | 0.0 | 0.00 | 0.00 | 0.00 | 92 | 1008.4 |
| 20260509074104 | 58 | 151 | 0.0 | 0.0 | 0.00 | 0.00 | 0.00 | 92 | 1008.6 |
| 20260509073659 | 58 | 151 | 0.0 | 0.0 | 0.00 | 0.00 | 0.00 | 93 | 1008.6 |
| 20260509073138 | 58 | 151 | 0.0 | 1.0 | 0.00 | 0.00 | 0.00 | 93 | 1008.6 |
| 20260509072611 | 58 | 151 | 0.0 | 1.0 | 0.00 | 0.00 | 0.00 | 93 | 1008.5 |
| 20260509072107 | 58 | 151 | 0.0 | 2.0 | 0.00 | 0.00 | 0.00 | 93 | 1008.5 |
| 20260509071602 | 58 | 151 | 0.0 | 2.0 | 0.00 | 0.00 | 0.00 | 93 | 1008.5 |
| 20260509071101 | 58 | 159 | 0.0 | 1.0 | 0.00 | 0.00 | 0.00 | 93 | 1008.4 |
| 20260509070617 | 58 | 194 | 0.0 | 2.0 | 0.00 | 0.00 | 0.00 | 93 | 1008.4 |
| 20260509070110 | 58 | 196 | 0.0 | 1.0 | 0.00 | 0.00 | 0.00 | 93 | 1008.4 |
| 20260509065605 | 58 | 265 | 0.0 | 0.0 | 0.00 | 0.00 | 0.00 | 93 | 1008.6 |
| 20260509065108 | 58 | 265 | 0.0 | 0.0 | 0.00 | 0.00 | 0.00 | 93 | 1008.6 |
| 20260509064604 | 58 | 265 | 0.0 | 0.0 | 0.00 | 0.00 | 0.00 | 93 | 1008.6 |
| 20260509064102 | 58 | 265 | 0.0 | 0.0 | 0.00 | 0.00 | 0.00 | 92 | 1008.7 |
| 20260509063616 | 58 | 265 | 0.0 | 0.0 | 0.00 | 0.00 | 0.00 | 92 | 1008.7 |
| 20260509063115 | 58 | 265 | 0.0 | 0.0 | 0.00 | 0.00 | 0.00 | 92 | 1008.7 |
| 20260509062601 | 58 | 265 | 0.0 | 0.0 | 0.00 | 0.00 | 0.00 | 92 | 1008.8 |
| 20260509062116 | 58 | 265 | 0.0 | 0.0 | 0.00 | 0.00 | 0.00 | 92 | 1008.8 |
| 20260509061612 | 58 | 265 | 0.0 | 0.0 | 0.00 | 0.00 | 0.00 | 92 | 1008.8 |
| 20260509061108 | 58 | 270 | 0.0 | 0.0 | 0.00 | 0.00 | 0.00 | 92 | 1008.8 |
| 20260509060623 | 58 | 270 | 0.0 | 0.0 | 0.00 | 0.00 | 0.00 | 92 | 1008.8 |
| 20260509060137 | 58 | 270 | 0.0 | 0.0 | 0.00 | 0.00 | 0.00 | 92 | 1008.8 |
| 20260509055609 | 58 | 270 | 0.0 | 0.0 | 0.00 | 0.00 | 0.00 | 92 | 1008.8 |
| 20260509055102 | 57 | 270 | 0.0 | 0.0 | 0.00 | 0.00 | 0.00 | 92 | 1008.8 |
| 20260509054704 | 57 | 270 | 0.0 | 0.0 | 0.00 | 0.00 | 0.00 | 92 | 1008.8 |
| 20260509054124 | 57 | 270 | 0.0 | 0.0 | 0.00 | 0.00 | 0.00 | 92 | 1008.8 |
| 20260509053606 | 57 | 270 | 0.0 | 0.0 | 0.00 | 0.00 | 0.00 | 92 | 1008.8 |
| 20260509053101 | 57 | 270 | 0.0 | 0.0 | 0.00 | 0.00 | 0.00 | 92 | 1008.8 |
| 20260509052616 | 57 | 270 | 0.0 | 0.0 | 0.00 | 0.00 | 0.00 | 91 | 1008.7 |
| 20260509052132 | 57 | 270 | 0.0 | 0.0 | 0.00 | 0.00 | 0.00 | 91 | 1008.7 |
| 20260509051626 | 57 | 270 | 0.0 | 0.0 | 0.00 | 0.00 | 0.00 | 91 | 1008.7 |
| 20260509051100 | 57 | 270 | 0.0 | 0.0 | 0.00 | 0.00 | 0.00 | 91 | 1008.7 |
| 20260509050614 | 57 | 270 | 0.0 | 0.0 | 0.00 | 0.00 | 0.00 | 91 | 1008.7 |
| 20260509050113 | 57 | 270 | 0.0 | 0.0 | 0.00 | 0.00 | 0.00 | 91 | 1008.7 |
| 20260509045610 | 57 | 270 | 0.0 | 0.0 | 0.00 | 0.00 | 0.00 | 91 | 1008.6 |
| 20260509045105 | 57 | 270 | 0.0 | 0.0 | 0.00 | 0.00 | 0.00 | 91 | 1008.6 |
| 20260509044621 | 57 | 270 | 0.0 | 0.0 | 0.00 | 0.00 | 0.00 | 91 | 1008.6 |
| 20260509044225 | 57 | 270 | 0.0 | 0.0 | 0.00 | 0.00 | 0.00 | 91 | 1008.7 |
| 20260509043558 | 57 | 270 | 0.0 | 0.0 | 0.00 | 0.00 | 0.00 | 91 | 1008.7 |
| 20260509043114 | 57 | 270 | 0.0 | 0.0 | 0.00 | 0.00 | 0.00 | 90 | 1008.7 |
| 20260509042630 | 57 | 270 | 0.0 | 0.0 | 0.00 | 0.00 | 0.00 | 90 | 1008.6 |
| 20260509042103 | 57 | 270 | 0.0 | 0.0 | 0.00 | 0.00 | 0.00 | 90 | 1008.6 |
| 20260509041558 | 58 | 270 | 0.0 | 0.0 | 0.00 | 0.00 | 0.00 | 90 | 1008.6 |
| 20260509041133 | 58 | 270 | 0.0 | 0.0 | 0.00 | 0.00 | 0.00 | 90 | 1008.3 |
| 20260509040610 | 57 | 270 | 0.0 | 0.0 | 0.00 | 0.00 | 0.00 | 90 | 1008.3 |
| 20260509040106 | 57 | 270 | 0.0 | 0.0 | 0.00 | 0.00 | 0.00 | 90 | 1008.3 |
| 20260509035601 | 58 | 270 | 0.0 | 0.0 | 0.00 | 0.00 | 0.00 | 90 | 1008.2 |
| 20260509035057 | 58 | 270 | 0.0 | 0.0 | 0.00 | 0.00 | 0.00 | 90 | 1008.2 |
| 20260509034610 | 58 | 270 | 0.0 | 1.0 | 0.00 | 0.00 | 0.00 | 89 | 1008.2 |
| 20260509034132 | 58 | 270 | 0.0 | 1.0 | 0.00 | 0.00 | 0.00 | 89 | 1008.0 |
| 20260509033616 | 58 | 270 | 0.0 | 0.0 | 0.00 | 0.00 | 0.00 | 89 | 1008.0 |
| 20260509033109 | 58 | 270 | 0.0 | 2.0 | 0.00 | 0.00 | 0.00 | 89 | 1008.0 |
| 20260509032607 | 58 | 270 | 0.0 | 2.0 | 0.00 | 0.00 | 0.00 | 89 | 1008.1 |
| 20260509032103 | 58 | 269 | 0.0 | 1.0 | 0.00 | 0.00 | 0.00 | 89 | 1008.1 |
| 20260509031558 | 58 | 269 | 0.0 | 1.0 | 0.00 | 0.00 | 0.00 | 89 | 1008.1 |
| 20260509031112 | 58 | 269 | 0.0 | 1.0 | 0.00 | 0.00 | 0.00 | 89 | 1007.8 |